[[{"header":{"parameterUnit":"m.s-1","parameterCategory":1,"la1":30.2991,"la2":30.254,"lo1":-89.0895,"lo2":-89.0444,"dy":0.0017,"dx":0.0017,"nx":28,"ny":28,"refTime":"2023-03-30T15:00:00:Z","depth":0,"parameterNumber":2,"parameterNumberName":"U-component_of_WINDS"},"data":[0,0,0,0,0,0,0,0,0,0,0,0,0,0,0,0,0,0,0,0,0,0,0,0,0,0,0,0,0,0,0,0,0,0,0,0,0,0,0,0,0,0,0,0,0,0,0,0,0,0,0,0,0,0,0,0,0,0,-1.8898,-1.8898,0,-1.8886,-1.8886,-1.8885,-1.8861,-1.8861,-1.886,-1.886,-1.8847,-1.8848,-1.8848,0,0,0,0,0,0,0,0,0,0,0,0,0,-1.8901,-1.8901,-1.8898,-1.8898,-1.8897,-1.8886,-1.8886,-1.8885,-1.8861,-1.8861,-1.886,-1.886,-1.8847,-1.8848,-1.8848,0,0,0,0,0,0,0,0,0,0,0,0,0,-1.8895,-1.8901,-1.8898,-1.8884,-1.8883,-1.8886,-1.8886,-1.8885,-1.8862,-1.8861,-1.886,-1.8859,-1.8847,-1.8847,-1.8848,-1.8863,0,0,-1.8848,-1.8848,0,0,0,0,0,0,0,0,-1.8896,-1.8895,-1.8886,-1.8885,-1.8883,-1.8874,-1.8882,-1.8878,-1.8862,-1.887,-1.886,-1.8859,-1.8857,-1.8856,-1.8856,-1.8862,-1.8862,-1.8848,-1.8848,-1.8848,-1.8848,0,0,0,0,0,0,0,-1.8896,-1.8896,-1.8893,-1.8886,-1.8884,-1.8879,-1.8877,-1.8881,-1.8867,-1.8869,-1.8867,-1.8866,-1.8856,-1.8855,-1.8855,-1.8862,-1.8848,-1.8848,-1.8848,-1.8848,-1.8882,-1.8882,0,0,0,0,0,0,-1.8898,-1.8896,-1.8893,-1.8893,-1.8888,-1.8879,-1.8878,-1.8878,-1.8867,-1.8865,-1.8867,-1.8865,-1.8856,-1.8855,-1.8855,-1.8872,-1.8848,-1.8849,-1.8849,-1.8881,-1.8882,-1.8883,0,0,0,0,0,0,-1.8899,-1.8898,-1.8894,-1.8894,-1.8893,-1.888,-1.8881,-1.8878,-1.8877,-1.8866,-1.8863,-1.8868,-1.8855,-1.8854,-1.8861,-1.8871,-1.8849,-1.8849,-1.888,-1.8881,-1.8882,-1.8907,0,0,0,0,0,0,-1.8899,-1.8899,-1.8904,-1.8894,-1.8893,-1.89,-1.8881,-1.8878,-1.8878,-1.8875,-1.8867,-1.8864,-1.8854,-1.8861,-1.8861,-1.8871,-1.8849,-1.8879,-1.8881,-1.8882,-1.8905,-1.8909,-1.8912,0,0,0,0,0,-1.8899,-1.8911,-1.8904,-1.8904,-1.8899,-1.8901,-1.89,-1.8888,-1.8879,-1.8884,-1.8877,-1.8865,-1.8871,-1.8862,-1.8862,-1.8872,-1.8878,-1.888,-1.8882,-1.8904,-1.8908,-1.8912,0,0,0,0,0,0,-1.8921,-1.8909,-1.8902,-1.8911,-1.8907,-1.8897,-1.8903,-1.8893,-1.8892,-1.889,-1.8876,-1.8874,-1.8883,-1.8878,-1.8869,-1.8887,-1.8873,-1.8874,-1.8889,-1.8893,-1.8897,-1.8897,-1.8849,0,0,0,0,0,-1.8928,-1.893,-1.8919,-1.8929,-1.8927,-1.8916,-1.8916,-1.8907,-1.8903,-1.8901,-1.8894,-1.8891,-1.8892,-1.8892,-1.8893,-1.8905,-1.8903,-1.8912,-1.8915,-1.8918,-1.892,-1.8927,-1.893,-1.8888,-1.8888,-1.8888,0,0,-1.894,-1.8934,-1.8936,-1.8933,-1.8929,-1.8932,-1.8914,-1.8918,-1.892,-1.8902,-1.8908,-1.8903,-1.8898,-1.8908,-1.8912,-1.8904,-1.8931,-1.8921,-1.8923,-1.8923,-1.8929,-1.8933,-1.8936,-1.889,-1.8889,-1.8889,0,0,-1.8964,-1.896,-1.8967,-1.8964,-1.8959,-1.8951,-1.8953,-1.8945,-1.8941,-1.8947,-1.8934,-1.8937,-1.8938,-1.8936,-1.8934,-1.896,-1.8949,-1.8961,-1.8978,-1.8985,-1.8988,-1.8991,-1.9,-1.9003,-1.8962,-1.8962,-1.8962,0,-1.898,-1.8984,-1.8972,-1.8977,-1.8976,-1.8961,-1.8968,-1.8966,-1.8961,-1.8961,-1.8953,-1.8956,-1.8951,-1.8961,-1.8967,-1.8967,-1.8969,-1.8961,-1.8988,-1.8991,-1.8994,-1.9002,-1.9005,-1.8964,-1.8964,-1.8963,-1.8963,0,-1.9004,-1.9007,-1.9014,-1.901,-1.901,-1.9016,-1.9006,-1.9008,-1.9,-1.8994,-1.9001,-1.8996,-1.8995,-1.8997,-1.8989,-1.9005,-1.9001,-1.8991,-1.8976,-1.8999,-1.9007,-1.901,-1.8966,-1.8965,-1.8965,-1.8964,0,0,-1.904,-1.9031,-1.9033,-1.9032,-1.9026,-1.9028,-1.9034,-1.9034,-1.9036,-1.9034,-1.9039,-1.9042,-1.9033,-1.9032,-1.9024,-1.903,-1.9051,-1.9019,-1.9019,-1.9025,-1.9069,-1.9076,-1.908,-1.9044,-1.9045,-1.9045,-1.9069,0,-1.9062,-1.9071,-1.9062,-1.9074,-1.9077,-1.9063,-1.9069,-1.9066,-1.9061,-1.9063,-1.9057,-1.906,-1.9048,-1.9047,-1.9053,-1.9047,-1.9059,-1.9045,-1.9048,-1.9049,-1.9049,-1.9084,-1.909,-1.9113,-1.9072,-1.9073,-1.9073,0,-1.9088,-1.9088,-1.91,-1.9094,-1.9095,-1.91,-1.91,-1.9102,-1.9099,-1.9095,-1.9095,-1.9086,-1.9092,-1.9079,-1.9088,-1.9078,-1.9079,-1.9077,-1.9078,-1.9076,-1.9061,-1.9083,-1.912,-1.9123,-1.9078,-1.9077,-1.9077,0,-1.9113,-1.9116,-1.9123,-1.9122,-1.9116,-1.912,-1.9118,-1.9114,-1.9115,-1.9115,-1.9115,-1.9116,-1.9116,-1.9118,-1.9109,-1.91,-1.9119,-1.9105,-1.9116,-1.9116,-1.9119,-1.9119,-1.9156,-1.9122,-1.9121,-1.9121,-1.9121,0,-1.9138,-1.9146,-1.9134,-1.9139,-1.9148,-1.9137,-1.9146,-1.9143,-1.914,-1.9144,-1.9133,-1.9137,-1.9126,-1.9129,-1.9123,-1.9131,-1.9132,-1.9129,-1.9126,-1.9129,-1.9129,-1.9128,-1.9126,-1.9122,-1.9122,-1.9122,-1.9122,0,-1.9166,-1.9159,-1.9166,-1.916,-1.9159,-1.9166,-1.9161,-1.9165,-1.916,-1.9165,-1.9166,-1.9158,-1.9162,-1.9154,-1.9156,-1.9152,-1.9163,-1.9159,-1.9164,-1.9163,-1.9174,-1.9173,-1.9211,-1.9216,-1.9179,-1.9179,-1.918,0,-1.9182,-1.9187,-1.9183,-1.9185,-1.9183,-1.9186,-1.9187,-1.9178,-1.918,-1.9178,-1.9183,-1.9185,-1.9187,-1.9193,-1.9188,-1.9189,-1.9185,-1.9199,-1.9185,-1.9187,-1.9184,-1.9184,-1.9184,-1.9201,-1.9201,-1.9202,-1.9202,0,-1.921,-1.9207,-1.9209,-1.921,-1.9212,-1.9212,-1.9212,-1.9214,-1.9205,-1.9207,-1.9211,-1.9212,-1.9215,-1.9217,-1.9219,-1.9216,-1.9208,-1.9207,-1.9209,-1.9211,-1.9213,-1.9212,-1.9171,-1.9205,-1.9205,-1.9205,-1.9204,-1.9204,-1.9232,-1.9237,-1.9235,-1.9238,-1.9237,-1.9237,-1.9241,-1.9237,-1.924,-1.9241,-1.9236,-1.9241,-1.9239,-1.924,-1.9239,-1.9243,-1.9237,-1.9241,-1.9241,-1.9242,-1.9244,-1.9214,-1.9243,-1.9243,-1.9243,-1.9243,-1.9243,0,-1.926,-1.9258,-1.9261,-1.9261,-1.9264,-1.9256,-1.9256,-1.9259,-1.9263,-1.9262,-1.9264,-1.9269,-1.9272,-1.9268,-1.927,-1.9274,-1.927,-1.9275,-1.9274,-1.9274,-1.9249,-1.9246,-1.9278,-1.9278,-1.9278,-1.9278,-1.9278,-1.9278,-1.9275,-1.9283,-1.9279,-1.9287,-1.9285,-1.929,-1.929,-1.9291,-1.929,-1.9296,-1.9298,-1.9296,-1.9294,-1.9297,-1.9299,-1.9298,-1.9299,-1.9305,-1.9303,-1.9279,-1.9276,-1.9272,-1.927,-1.9306,-1.9306,-1.9327,-1.9327,-1.9327]},{"header":{"parameterUnit":"m.s-1","parameterCategory":1,"la1":30.2991,"la2":30.254,"lo1":-89.0895,"lo2":-89.0444,"dy":0.0017,"dx":0.0017,"nx":28,"ny":28,"refTime":"2023-03-30T15:00:00:Z","depth":0,"parameterNumber":3,"parameterNumberName":"V-component_of_WINDS"},"data":[0,0,0,0,0,0,0,0,0,0,0,0,0,0,0,0,0,0,0,0,0,0,0,0,0,0,0,0,0,0,0,0,0,0,0,0,0,0,0,0,0,0,0,0,0,0,0,0,0,0,0,0,0,0,0,0,0,0,6.0901,6.09,0,6.083,6.0829,6.0828,6.0722,6.072,6.0718,6.0717,6.0643,6.0643,6.0643,0,0,0,0,0,0,0,0,0,0,0,0,0,6.0945,6.0945,6.0901,6.09,6.0899,6.083,6.0829,6.0828,6.0722,6.072,6.0718,6.0716,6.0644,6.0643,6.0643,0,0,0,0,0,0,0,0,0,0,0,0,0,6.0905,6.0945,6.0901,6.0838,6.0832,6.083,6.0829,6.0828,6.0723,6.072,6.0717,6.0715,6.0644,6.0643,6.0643,6.0697,0,0,6.0642,6.0642,0,0,0,0,0,0,0,0,6.0908,6.0904,6.0848,6.0843,6.0835,6.0782,6.0817,6.0784,6.0724,6.0764,6.0717,6.0713,6.0692,6.0687,6.068,6.0693,6.069,6.0642,6.0642,6.0642,6.0642,0,0,0,0,0,0,0,6.0911,6.0906,6.0873,6.0848,6.084,6.0813,6.0805,6.0811,6.0745,6.0761,6.0753,6.0746,6.0688,6.0681,6.0678,6.0689,6.0642,6.0642,6.0642,6.0641,6.0742,6.0744,0,0,0,0,0,0,6.0923,6.0909,6.0875,6.0871,6.0865,6.0815,6.0805,6.0802,6.0744,6.0733,6.0748,6.0741,6.0683,6.0678,6.0675,6.0733,6.0642,6.0641,6.0641,6.0739,6.0742,6.0745,0,0,0,0,0,0,6.0924,6.0921,6.0878,6.0888,6.088,6.0817,6.0814,6.0802,6.0795,6.0735,6.0722,6.0753,6.068,6.0675,6.0692,6.0729,6.0641,6.0641,6.0735,6.074,6.0744,6.0851,0,0,0,0,0,0,6.0926,6.0922,6.0942,6.0889,6.088,6.0897,6.0817,6.0803,6.0795,6.0785,6.0736,6.0726,6.0678,6.0693,6.0692,6.0727,6.0641,6.0732,6.0737,6.0742,6.0844,6.0859,6.0871,0,0,0,0,0,6.0928,6.0975,6.0943,6.094,6.0904,6.0899,6.0894,6.0838,6.0798,6.0817,6.0779,6.0727,6.0725,6.0696,6.0693,6.0729,6.0729,6.0736,6.0742,6.0838,6.0856,6.0871,0,0,0,0,0,0,6.1034,6.0967,6.0931,6.0963,6.0938,6.0882,6.0904,6.0859,6.0845,6.0836,6.0767,6.0757,6.0782,6.0757,6.0725,6.0777,6.0719,6.0726,6.0793,6.0809,6.0823,6.0828,6.064,0,0,0,0,0,6.1062,6.1064,6.1005,6.1038,6.1027,6.0969,6.0964,6.0923,6.0894,6.0883,6.0845,6.0819,6.0812,6.0809,6.08,6.084,6.0827,6.0863,6.0877,6.0888,6.0895,6.0913,6.0928,6.0766,6.0766,6.0766,0,0,6.1118,6.1081,6.1087,6.1059,6.1034,6.1038,6.096,6.0967,6.0969,6.0884,6.0897,6.0869,6.0835,6.0863,6.0874,6.0843,6.0936,6.0896,6.0906,6.0906,6.0921,6.0936,6.095,6.0771,6.077,6.0769,0,0,6.1222,6.1195,6.1219,6.1196,6.116,6.112,6.1127,6.1077,6.1055,6.1067,6.1004,6.1004,6.0994,6.0972,6.096,6.1055,6.1007,6.1054,6.1125,6.1144,6.1156,6.1167,6.1201,6.1214,6.106,6.1061,6.1061,0,6.1296,6.1299,6.1238,6.1249,6.1238,6.1161,6.1186,6.1166,6.1129,6.1123,6.1089,6.1074,6.1046,6.1068,6.1091,6.1084,6.1088,6.1059,6.1159,6.117,6.1179,6.121,6.1223,6.1066,6.1066,6.1065,6.1065,0,6.1392,6.1395,6.1419,6.1385,6.1377,6.1395,6.1336,6.1335,6.1295,6.1259,6.1272,6.1235,6.1216,6.1218,6.1179,6.1234,6.1216,6.1172,6.1112,6.1201,6.123,6.1241,6.1075,6.1073,6.1071,6.107,0,0,6.1562,6.1493,6.1503,6.1487,6.1441,6.1442,6.1456,6.1437,6.1438,6.1414,6.1424,6.1417,6.1375,6.1361,6.1318,6.1335,6.1412,6.1288,6.1286,6.1312,6.147,6.1504,6.1519,6.1379,6.1381,6.1383,6.1473,0,6.1657,6.1677,6.1622,6.1656,6.1658,6.1584,6.1596,6.1569,6.1535,6.1531,6.1494,6.149,6.1435,6.1426,6.1439,6.14,6.1443,6.1393,6.1387,6.1388,6.1399,6.1534,6.157,6.1657,6.1484,6.1485,6.1487,0,6.1771,6.1753,6.1788,6.1739,6.1738,6.175,6.1728,6.1725,6.1693,6.1667,6.1651,6.1601,6.1611,6.1553,6.1565,6.1532,6.1526,6.1506,6.1508,6.1506,6.1443,6.1535,6.1683,6.1696,6.1504,6.1502,6.1501,0,6.1891,6.1876,6.1894,6.1882,6.1827,6.1836,6.1814,6.1778,6.1771,6.1751,6.1746,6.1728,6.1719,6.1706,6.1652,6.1615,6.167,6.1608,6.1648,6.165,6.1664,6.1663,6.1813,6.166,6.166,6.166,6.1659,0,6.2003,6.2027,6.1948,6.1959,6.1983,6.1919,6.1945,6.1915,6.1884,6.1887,6.1822,6.1827,6.1756,6.1752,6.171,6.1726,6.1722,6.1701,6.169,6.1707,6.171,6.1703,6.1695,6.1663,6.1662,6.1662,6.1661,0,6.2142,6.209,6.2105,6.2051,6.2037,6.2058,6.2011,6.2019,6.198,6.1986,6.1983,6.1924,6.1916,6.1861,6.1841,6.1813,6.1844,6.1821,6.1856,6.1848,6.1891,6.1888,6.2041,6.2058,6.1895,6.1897,6.1898,0,6.2217,6.2233,6.2181,6.2179,6.2159,6.2157,6.2148,6.2086,6.208,6.2044,6.2056,6.2043,6.203,6.2021,6.1975,6.1959,6.1935,6.199,6.1932,6.1949,6.1936,6.1936,6.1937,6.2003,6.2005,6.2006,6.2008,0,6.2356,6.2329,6.232,6.2302,6.2294,6.2276,6.2255,6.2257,6.2188,6.2184,6.2176,6.2166,6.2145,6.2133,6.2109,6.2084,6.2035,6.2026,6.2034,6.2053,6.2072,6.2062,6.1889,6.2023,6.2021,6.202,6.2019,6.2019,6.2464,6.2476,6.244,6.2432,6.2409,6.2391,6.2395,6.2358,6.235,6.2329,6.2292,6.2289,6.2255,6.2217,6.2197,6.2193,6.2164,6.2176,6.2179,6.2183,6.2193,6.2073,6.2188,6.2188,6.2187,6.2187,6.2186,0,6.26,6.2573,6.2566,6.2538,6.2532,6.2486,6.2459,6.2457,6.2455,6.2428,6.2416,6.2406,6.2393,6.2347,6.2329,6.2335,6.2312,6.2333,6.2332,6.2327,6.222,6.2214,6.2352,6.2352,6.2352,6.2352,6.2352,6.2352,6.2669,6.2686,6.2655,6.2659,6.2631,6.2628,6.2617,6.2599,6.2577,6.2569,6.2559,6.2528,6.2493,6.2472,6.2458,6.2445,6.2441,6.247,6.2449,6.235,6.2334,6.2319,6.2313,6.247,6.247,6.2556,6.2557,6.2558]}]]